Location: Unspecified
(0.0000°N, 0.0000°E)
Time: 20:16:42
(UTC+00:00)

Explorer 7 - Pass Details

Date: 25 July 2019
Orbit: 485 x 680 km, 50.3° (Epoch: 20 August)

Event Time Altitude Azimuth Distance (km) Brightness Sun altitude
Rises 04:54:06 0° 331° (NNW) 2,690 10.3 -17.0°
Reaches altitude 10° 04:56:17 10° 335° (NNW) 1,832 9.4 -16.5°
Maximum altitude 05:00:23 55° 53° (NE) 697 7.7 -15.5°
Drops below altitude 10° 05:04:48 10° 132° (SE) 1,963 10.0 -14.5°
Sets 05:07:13 0° 136° (SE) 2,903 10.8 -14.0°
